Wind_Speed
31 35 37 35 35 35 33 30 28 27 25 24 24 24 23 21 20 18 15 15 15 16 17 15 16 17 16 16 16 18 21 22
32 34 38 41 39 37 39 37 34 33 31 28 27 27 28 24 23 20 20 18 20 20 19 19 21 21 20 20 20 21 22 22
35 34 40 45 43 42 42 40 40 39 35 32 30 27 25 23 21 22 23 23 24 23 23 22 24 23 23 21 22 22 22 21
40 39 40 48 48 48 45 43 42 42 39 36 33 27 23 23 25 25 24 22 23 24 24 23 23 22 21 21 23 22 19 21
39 42 46 50 51 46 41 41 37 39 38 37 36 31 31 26 26 26 25 24 24 25 24 24 22 21 23 24 21 21 23 20
41 46 47 48 46 42 43 43 38 39 41 38 35 29 28 26 27 23 22 20 21 20 20 18 18 16 15 15 14 14 16 15
39 44 50 49 45 43 43 41 39 39 40 37 35 32 29 28 25 23 20 18 16 16 15 14 13 13 12 13 14 15 14 15
40 43 51 48 45 43 41 40 41 39 37 35 35 33 29 25 24 21 19 17 16 15 14 12 11 12 13 13 14 15 16 17
43 45 50 49 46 46 44 41 38 36 35 33 32 29 25 23 22 22 20 18 16 13 12 11 12 13 14 14 15 15 16 17
45 47 49 50 48 46 44 39 39 38 34 33 29 28 28 27 24 21 18 16 13 12 12 12 11 12 13 13 13 14 16 16
44 49 51 48 48 45 42 41 39 37 34 32 30 30 28 25 22 19 16 13 11 11 11 10 10 11 12 13 14 16 17 17
45 46 48 48 47 45 43 41 40 37 37 35 32 30 27 23 20 17 14 12 10 9 9 9 10 12 13 15 16 17 16 16
39 44 48 50 47 46 45 44 40 40 39 36 33 29 25 21 18 14 11 10 9 9 10 11 12 14 15 17 18 14 14 15
36 40 47 51 51 50 47 44 42 41 38 36 33 30 26 21 17 13 11 10 9 10 11 12 13 15 18 17 13 13 13 13
39 41 45 53 54 51 49 45 42 41 38 34 30 26 22 18 15 12 10 9 9 10 12 13 15 15 12 10 9 9 9 9
41 44 47 55 55 51 48 45 42 40 36 31 28 24 19 15 12 10 9 10 10 10 12 13 10 9 8 6 6 7 8 8
41 42 47 56 58 53 48 45 43 40 33 30 25 20 17 14 12 10 9 8 8 8 8 4 4 5 4 3 4 5 6 7
40 45 52 61 59 55 52 48 42 35 33 27 24 20 17 13 12 10 9 10 9 6 3 2 2 3 2 2 3 5 6 7
42 44 48 56 57 57 54 46 41 37 31 28 24 20 16 13 10 12 14 12 10 7 5 2 1 2 3 4 5 6 6 8
Wind_Direction
235 237 228 227 224 227 231 229 225 221 217 216 217 220 219 214 219 223 221 225 234 243 246 251 255 260 267 279 285 287 287 283
239 235 232 228 228 231 232 231 228 222 214 210 211 215 215 214 220 227 232 233 240 250 257 259 256 261 261 262 266 271 280 281
233 227 231 227 228 231 236 237 233 225 219 213 216 215 216 223 223 225 227 240 241 247 248 251 254 255 258 259 268 274 278 286
225 222 224 227 227 231 236 237 232 222 217 214 218 217 216 216 221 229 230 238 244 248 249 247 248 250 255 263 268 272 276 281
227 222 218 222 227 230 232 233 224 220 220 216 220 217 210 218 228 224 238 243 248 245 244 250 247 252 256 259 260 265 268 270
221 220 219 217 219 220 221 225 222 221 218 216 218 216 219 225 222 234 237 239 246 238 246 246 250 248 252 256 262 261 266 271
223 216 209 212 213 213 213 214 217 217 215 214 213 212 222 223 232 237 240 227 218 219 220 230 242 253 264 274 282 287 285 280
218 211 207 207 208 209 213 214 213 209 206 204 206 215 220 231 228 219 209 208 212 221 230 239 249 262 271 279 285 289 289 288
219 216 208 206 206 209 212 211 208 201 194 198 208 211 207 202 199 200 207 216 222 229 243 256 264 271 276 280 285 287 288 289
217 214 210 207 206 207 205 198 195 191 196 198 198 195 194 194 197 204 209 217 226 237 247 255 263 269 276 284 291 297 301 297
213 214 210 208 206 202 198 195 194 194 194 193 188 190 192 195 196 202 208 214 222 235 245 256 267 282 293 300 304 306 302 295
211 210 207 203 199 195 191 191 191 191 186 185 186 188 189 189 192 200 204 210 220 234 252 268 278 281 286 289 294 299 292 288
205 203 200 195 189 184 185 185 187 187 184 183 184 186 186 189 191 194 202 214 226 242 256 266 276 283 288 296 302 297 290 287
194 196 196 190 181 181 181 184 185 183 183 183 184 185 184 183 189 194 206 222 236 251 264 270 278 287 294 297 298 297 298 299
191 193 195 190 184 181 181 184 186 184 185 185 182 182 185 186 190 198 211 223 237 250 259 270 280 287 290 297 295 293 297 305
191 193 193 190 185 184 184 184 186 186 185 185 184 183 183 185 190 200 210 227 239 252 266 273 272 279 286 293 291 303 312 315
193 186 185 188 187 185 184 184 187 188 186 184 183 187 187 190 193 201 212 225 241 252 252 264 274 294 300 310 319 321 321 324
191 196 196 191 191 186 185 186 183 184 187 185 189 191 190 191 198 199 207 216 219 215 239 264 315 346 359 347 334 330 331 335
202 198 192 192 192 189 185 181 183 185 187 190 189 189 190 188 192 206 208 204 197 191 168 143 113 46 28 343 337 334 332 325
Height
1454 1455 1458 1462 1465 1469 1473 1477 1482 1486 1489 1493 1496 1500 1503 1506 1510 1514 1518 1521 1525 1526 1528 1530 1532 1532 1533 1534 1534 1534 1534 1534
1447 1449 1452 1456 1459 1463 1466 1471 1477 1481 1484 1488 1491 1494 1498 1501 1506 1511 1515 1518 1521 1522 1525 1527 1527 1528 1530 1530 1529 1529 1529 1529
1437 1440 1443 1447 1451 1454 1458 1464 1469 1475 1479 1483 1487 1490 1494 1499 1503 1507 1511 1514 1515 1517 1519 1522 1522 1523 1524 1524 1525 1525 1524 1525
1426 1431 1435 1439 1442 1445 1451 1456 1461 1468 1473 1478 1482 1487 1490 1494 1498 1502 1506 1509 1510 1511 1513 1515 1517 1518 1519 1519 1519 1519 1519 1520
1419 1422 1425 1430 1434 1440 1445 1449 1455 1461 1466 1472 1476 1480 1483 1489 1495 1498 1501 1503 1505 1506 1508 1510 1511 1513 1514 1514 1515 1514 1514 1515
1408 1412 1417 1423 1429 1435 1440 1444 1450 1455 1460 1466 1472 1479 1484 1488 1491 1494 1496 1498 1501 1502 1504 1506 1508 1509 1509 1509 1509 1509 1510 1511
1402 1407 1413 1418 1425 1430 1434 1438 1443 1447 1453 1459 1466 1473 1479 1484 1487 1489 1492 1495 1497 1499 1501 1503 1505 1505 1506 1507 1507 1507 1506 1507
1393 1397 1404 1412 1418 1424 1430 1434 1438 1443 1448 1455 1461 1468 1474 1478 1483 1486 1489 1492 1494 1496 1498 1500 1501 1503 1503 1504 1504 1504 1505 1505
1385 1389 1396 1405 1411 1418 1424 1429 1435 1442 1447 1453 1459 1464 1468 1473 1479 1484 1487 1489 1492 1494 1495 1496 1497 1498 1499 1499 1499 1499 1500 1500
1376 1384 1391 1398 1404 1411 1417 1425 1432 1438 1445 1450 1455 1460 1465 1469 1475 1480 1483 1487 1489 1491 1492 1493 1494 1495 1496 1496 1496 1496 1496 1496
1372 1376 1383 1392 1401 1407 1417 1423 1429 1435 1441 1446 1451 1458 1463 1468 1472 1477 1480 1483 1486 1488 1490 1490 1491 1493 1493 1493 1493 1492 1491 1491
1364 1370 1378 1387 1396 1405 1413 1420 1427 1432 1438 1443 1450 1455 1461 1465 1468 1473 1477 1480 1482 1485 1486 1488 1488 1489 1489 1489 1489 1489 1488 1488
1362 1368 1373 1381 1392 1401 1409 1417 1424 1431 1436 1440 1446 1453 1458 1463 1466 1469 1474 1477 1479 1481 1482 1483 1484 1485 1485 1485 1484 1484 1484 1483
1360 1367 1371 1379 1387 1397 1406 1415 1422 1427 1433 1437 1441 1447 1452 1454 1459 1464 1469 1472 1475 1477 1478 1480 1480 1480 1480 1480 1479 1479 1480 1479
1356 1365 1371 1379 1385 1392 1401 1411 1420 1423 1429 1434 1438 1444 1448 1451 1455 1460 1464 1468 1470 1472 1474 1475 1475 1476 1476 1476 1476 1476 1475 1474
1352 1357 1366 1375 1383 1391 1399 1408 1416 1423 1427 1433 1437 1442 1446 1449 1453 1456 1461 1464 1465 1467 1468 1469 1470 1471 1471 1472 1472 1472 1472 1472
1347 1352 1362 1371 1377 1384 1395 1403 1412 1419 1426 1432 1436 1442 1444 1448 1451 1454 1457 1459 1461 1464 1465 1466 1466 1467 1468 1468 1468 1468 1469 1469
1344 1347 1352 1361 1372 1377 1386 1396 1407 1419 1425 1429 1434 1439 1443 1446 1450 1450 1453 1456 1459 1460 1461 1462 1462 1463 1464 1465 1466 1466 1466 1464
1339 1344 1351 1360 1370 1375 1379 1391 1402 1412 1420 1426 1431 1437 1441 1443 1447 1451 1453 1454 1454 1456 1457 1458 1459 1459 1461 1463 1463 1463 1463 1464